Weather in Truckee

United States     39°19′40″N   120°10′59″W
В апреле 2022 года жителям России запретили посещать сайт meteo.paraplan.net по решению Генеральной прокуратуры. Аудитория сайта уменьшилась в 10 раз. Владельцы сайта не видят смысла в поддержке погодного сервера в таких условиях. Сайт будет закрыт в октябре.
temp.,
°C
wind,
m/s
gust,
m/s
humid.,
%
clouds,
%
prec.,
mm/h
press.,
hPa
HPBL,
m
4 october, tue
tue423:00+9e21420 0.0 102115
02:00+8e21460 0.0 102114
05:00+7e11480 0.0 102013
08:00+10e11415 0.0 102126
11:00+22s111732 0.0 10171145
14:00+23wsw33156 0.0 10152204
17:00+20wsw43230 0.0 10151177
20:00+10wnw11580 0.0 102011
5 october, wed
wed523:00+9e11580 0.0 102012
02:00+9e11534 0.0 102013
05:00+8e11485 0.0 102113
08:00+11e11410 0.0 102126
11:00+22ese11180 0.0 10181376
14:00+25sse12140 0.0 10152511
17:00+21w33230 0.0 10151361
20:00+11e00520 0.0 102011
6 october, thu
thu623:00+10e11460 0.0 102213
02:00+9e11360 0.0 102212
05:00+8e11370 0.0 102212
08:00+11ese11341 0.0 102219
11:00+22s12181 0.0 10191453
14:00+24wsw42195 0.0 10172787
17:00+21wsw44235 0.0 10181283
20:00+11wnw014096 0.0 102211
7 october, fri
fri723:00+10ese114159 0.0 102311
02:00+10ene11435 0.0 102312
05:00+9e11413 0.0 102312
08:00+12e113652 0.0 102419
11:00+23se11185 0.0 10201911
14:00+25ssw12155 0.0 10173267
17:00+21w441955 0.0 10171336
20:00+11nnw01333 0.0 102211
8 october, sat
sat823:00+10e11340 0.0 102211
02:00+10e11340 0.0 102212
05:00+9ese11340 0.0 102211
08:00+12se11320 0.0 102213
11:00+22wsw22172 0.0 10182085
14:00+23wsw531414 0.0 10163277
17:00+19w54181 0.0 10171607
20:00+10sw113330 0.0 102110